Погода в Хромтау

Казахстан     50°15′28″N   58°25′58″E
темп.,
°C
ветер,
м/с
пор.,
м/с
влажн.,
%
обл.,
%
осадки,
мм/ч
давл.,
гПа
погр.,
м
1 марта, пн
пн123:00−14з8149283 0.2 1011300
02:00−17з7129588 0.0 1013244
05:00−19з6119689 0.0 1015218
08:00−20з599789 0.0 1016162
11:00−17з689484 0.0 1018245
14:00−14з579391 0.0 1019258
17:00−15з599388 0.0 1019313
20:00−18з5119693 0.0 1021207
2 марта, вт
вт223:00−18з6119589 0.0 1022213
02:00−18з61196100 0.0 1021251
05:00−19з61297100 0.1 1022243
08:00−21з6129997 0.0 1022222
11:00−19з7129598 0.0 1023284
14:00−16зюз8139169 0.0 1022336
17:00−14зюз8148940 0.0 1020359
20:00−14зюз9159199 0.0 1018385
3 марта, ср
ср323:00−10юз101791100 0.1 1016500
02:00−7юз101890100 0.1 1014581
05:00−5юз111891100 0.1 1012672
08:00−5юз101793100 0.4 1010717
11:00−3юз111694100 0.9 1010847
14:00−2юз111594100 0.6 1008922
17:00−1юз101594100 1.2 10071017
20:00−2юз81495100 0.5 1006700
4 марта, чт
чт423:00−2юз81395100 0.9 1006659
02:00−3юз7139599 0.3 1005507
05:00−3зюз6129598 0.5 1005446
08:00−4зсз589595 0.2 1007251
11:00−8сз7119283 0.3 1009278
14:00−7зсз8128940 0.0 1012540
17:00−8зсз7138930 0.0 1015468
20:00−11з7139465 0.0 1017310
5 марта, пт
пт523:00−11зюз8158878 0.0 1019328
02:00−9зюз101892100 0.0 1018507
05:00−8зюз12218897 0.1 1017519
08:00−7зюз12218755 0.0 1017543
11:00−5зюз12218446 0.0 1018708
14:00−3зюз12198211 0.0 1018819
17:00−3зюз11188533 0.0 1018801
20:00−4юз101889100 0.0 1019646